White Plains, CT

12:59 PM EDT on April 27, 2017 (GMT -0400)
Westchester County

Weather History for KHPN - August, 2011

Change the Weather History Date:

Monday, August 15, 2011

  Actual Average Record
Temperature  
Mean Temperature 70 °F -  
Max Temperature 77 °F 79 °F 95 °F (1985)
Min Temperature 66 °F 62 °F 33 °F (1996)
Cooling Degree Days 6    
Growing Degree Days 20 (Base 50)    
Moisture  
Dew Point 67 °F    
Average Humidity 89    
Maximum Humidity 96    
Minimum Humidity 73    
Precipitation  
Precipitation 0.24 in - - ()
Sea Level Pressure  
Sea Level Pressure 29.69 in    
Wind  
Wind Speed 4 mph (East)    
Max Wind Speed 10 mph    
Max Gust Speed 21 mph    
Visibility 8 miles    
Events Rain    
Averages and records for this station are not official NWS values.
T = Trace of Precipitation, MM = Missing Value Source: NWS Daily Summary

Daily Weather History Graph

Daily Weather History Graph

Search for Another Location

Airport or City:

Trip Planner

Search our weather history database for the weather conditions in past years. The results will help you decide how hot, cold, wet, or windy it might be!

Date:

Astronomy

Aug. 15, 2011 Rise Set
Actual Time 6:04 AM EDT 7:53 PM EDT
Civil Twilight 5:34 AM EDT 8:23 PM EDT
Nautical Twilight 4:58 AM EDT 8:59 PM EDT
Astronomical Twilight 4:19 AM EDT 9:37 PM EDT
Moon 8:27 PM EDT (8/15) 7:56 AM EDT (8/15)
Length of Visible Light 14h 48m
Length of Day
13h 49m
Waning Gibbous, 97% of the Moon is Illuminated
Aug 15
Waning Gibbous
Aug 21
Last Quarter
Aug 28
New
Sep 4
First Quarter
Sep 12
Full

Hourly Weather History & Observations

Time (EDT) Temp. Dew Point Humidity Pressure Visibility Wind Dir Wind Speed Gust Speed Precip Events Conditions
12:56 AM 69.1 °F 66.9 °F 93% 29.77 in 3.0 mi SE 4.6 mph - 0.03 in   Mostly Cloudy
1:56 AM 69.1 °F 66.0 °F 90% 29.75 in 5.0 mi ESE 4.6 mph - N/A   Overcast
2:56 AM 69.1 °F 66.0 °F 90% 29.73 in 10.0 mi ESE 4.6 mph - N/A   Overcast
3:56 AM 69.1 °F 66.9 °F 93% 29.73 in 10.0 mi ESE 4.6 mph - N/A   Mostly Cloudy
4:56 AM 69.1 °F 66.9 °F 93% 29.71 in 10.0 mi East 5.8 mph - N/A   Mostly Cloudy
5:56 AM 69.1 °F 66.9 °F 93% 29.72 in 10.0 mi East 3.5 mph - N/A   Overcast
6:37 AM 69.8 °F 66.2 °F 88% 29.73 in 2.0 mi ENE 5.8 mph - 0.04 in Rain Rain
6:54 AM 69.8 °F 68.0 °F 94% 29.73 in 7.0 mi Calm Calm - 0.05 in Rain Light Rain
6:56 AM 69.1 °F 68.0 °F 96% 29.72 in 7.0 mi Calm Calm - 0.05 in   Mostly Cloudy
7:56 AM 69.1 °F 66.9 °F 93% 29.71 in 10.0 mi East 5.8 mph - 0.00 in   Mostly Cloudy
8:56 AM 69.1 °F 66.9 °F 93% 29.70 in 10.0 mi East 4.6 mph - 0.01 in   Mostly Cloudy
9:56 AM 70.0 °F 66.9 °F 90% 29.71 in 10.0 mi East 4.6 mph - 0.00 in   Overcast
10:56 AM 70.0 °F 66.9 °F 90% 29.70 in 2.0 mi ENE 4.6 mph - 0.01 in Rain Light Rain
11:56 AM 71.6 °F 69.8 °F 94% 29.71 in 9.0 mi ENE 8.1 mph - N/A   Mostly Cloudy
12:56 PM 73.0 °F 66.9 °F 81% 29.68 in 10.0 mi Variable 4.6 mph - N/A   Mostly Cloudy
1:56 PM 75.0 °F 66.0 °F 73% 29.65 in 10.0 mi East 4.6 mph - N/A   Mostly Cloudy
2:56 PM 75.2 °F 66.2 °F 73% 29.65 in 10.0 mi Calm Calm - N/A   Mostly Cloudy
3:56 PM 73.9 °F 66.9 °F 79% 29.63 in 10.0 mi SSE 10.4 mph - N/A   Mostly Cloudy
4:56 PM 73.9 °F 66.9 °F 79% 29.63 in 10.0 mi East 4.6 mph - N/A   Mostly Cloudy
5:37 PM 71.6 °F 68.0 °F 88% 29.65 in 3.0 mi WNW 10.4 mph 20.7 mph 0.11 in   Overcast
5:38 PM 71.6 °F 66.2 °F 83% 29.65 in 3.0 mi Variable 5.8 mph 20.7 mph 0.13 in Rain Heavy Rain
5:56 PM 70.0 °F 66.9 °F 90% 29.65 in 7.0 mi NNW 9.2 mph - 0.14 in   Drizzle
6:28 PM 69.8 °F 66.2 °F 88% 29.65 in 7.0 mi Calm Calm - 0.00 in   Drizzle
6:56 PM 70.0 °F 66.9 °F 90% 29.64 in 10.0 mi Calm Calm - 0.00 in   Mostly Cloudy
7:56 PM 70.0 °F 66.9 °F 90% 29.66 in 10.0 mi Calm Calm - N/A   Mostly Cloudy
8:17 PM 69.8 °F 66.2 °F 88% 29.68 in 10.0 mi WNW 3.5 mph - N/A   Mostly Cloudy
8:53 PM 69.8 °F 66.2 °F 88% 29.67 in 9.0 mi Calm Calm - N/A   Mostly Cloudy
8:56 PM 69.1 °F 66.9 °F 93% 29.66 in 9.0 mi Calm Calm - N/A   Mostly Cloudy
9:56 PM 68.0 °F 66.2 °F 94% 29.68 in 10.0 mi ENE 3.5 mph - N/A   Mostly Cloudy
10:56 PM 66.9 °F 64.0 °F 90% 29.69 in 10.0 mi East 3.5 mph - N/A   Overcast
11:56 PM 66.0 °F 64.0 °F 93% 29.70 in 10.0 mi ENE 3.5 mph - N/A   Overcast